User: anonymous   Login
Location: Unspecified
(0.0000°N, 0.0000°E)
Time: 22:36:11
(UTC+00:00)
Language:

TBA - TO BE ASSIGNED - Orbit

View from above orbital plane
View from above orbital plane
View from above satellite
View from above satellite

Ground track
Ground track

The orbit is defined by the following mean orbital elements,

1 67991U          26144.94284536 +.00000000 +00000-0 +54271-3 0 00005
2 67991  43.0027 338.4649 0001494 274.4559  85.6121 15.27587006    05
Epoch (UTC): 24 May 2026 22:37:41
Eccentricity: 0.0001494
inclination: 43.0027°
perigee height: 482 km
apogee height: 484 km
right ascension of ascending node: 338.4649°
argument of perigee: 274.4559°
revolutions per day: 15.27587006
mean anomaly at epoch: 85.6121°

The dashed part of the orbit path shows where the satellite is in the earth's shadow,  

DLR